[[{"header":{"parameterUnit":"m.s-1","parameterCategory":2,"la1":30.2991,"la2":30.254,"lo1":-89.0895,"lo2":-89.0444,"dy":0.0017,"dx":0.0017,"nx":28,"ny":28,"refTime":"2024-05-24T09:00:00:Z","depth":"0","parameterNumber":2,"parameterNumberName":"U-component_of_CURRENTS"},"data":[0,0,0,0,0,0,0,0,0,0,0,0,0,0,0,0,0,0,0,0,0,0,0,0,0,0,0,0,0,0,0,0,0,0,0,0,0,0,0,0,0,0,0,0,0,0,0,0,0,0,0,0,0,0,0,0,0,0,0.1125,0.1125,0,0.1144,0.1144,0.1144,0.1151,0.1151,0.1151,0.1151,0.116,0.116,0.116,0,0,0,0,0,0,0,0,0,0,0,0,0,0.1071,0.1072,0.1125,0.1125,0.1126,0.1144,0.1144,0.1144,0.1151,0.1151,0.1151,0.1151,0.116,0.116,0.116,0,0,0,0,0,0,0,0,0,0,0,0,0,0.1091,0.1072,0.1125,0.1132,0.1133,0.1144,0.1144,0.1144,0.1151,0.1151,0.1151,0.1151,0.116,0.116,0.116,0.1159,0,0,0.1161,0.1161,0,0,0,0,0,0,0,0,0.109,0.1093,0.1131,0.1132,0.1133,0.1147,0.1128,0.1149,0.1151,0.1142,0.1151,0.1151,0.1155,0.1156,0.1157,0.1159,0.116,0.1161,0.1161,0.1161,0.1161,0,0,0,0,0,0,0,0.1088,0.1092,0.1131,0.1131,0.1133,0.1127,0.113,0.1132,0.1146,0.1143,0.1144,0.1149,0.1156,0.1157,0.1157,0.116,0.1161,0.1161,0.1161,0.1161,0.1161,0.1161,0,0,0,0,0,0,0.1091,0.1091,0.113,0.1131,0.1113,0.1128,0.1131,0.1141,0.1146,0.1148,0.1149,0.1149,0.1156,0.1157,0.1157,0.1153,0.1161,0.1161,0.1161,0.1161,0.1161,0.1161,0,0,0,0,0,0,0.109,0.1094,0.1129,0.1112,0.1117,0.1129,0.1139,0.1141,0.1146,0.1151,0.1152,0.1153,0.1156,0.1157,0.116,0.1154,0.1161,0.1161,0.1161,0.1161,0.1161,0.1147,0,0,0,0,0,0,0.1088,0.1094,0.1101,0.1113,0.1118,0.114,0.114,0.1141,0.115,0.115,0.1155,0.1156,0.1156,0.1159,0.116,0.1154,0.1162,0.1161,0.1161,0.1161,0.1147,0.1146,0.1145,0,0,0,0,0,0.1086,0.1098,0.1101,0.1106,0.1127,0.114,0.1142,0.115,0.115,0.1154,0.1154,0.1156,0.1158,0.1159,0.116,0.1154,0.1162,0.1161,0.1161,0.1148,0.1146,0.1145,0,0,0,0,0,0,0.1077,0.11,0.1104,0.1121,0.1131,0.1142,0.1149,0.1151,0.1155,0.1156,0.1156,0.1156,0.1157,0.1159,0.116,0.1154,0.116,0.1159,0.1149,0.1148,0.1147,0.1175,0.1162,0,0,0,0,0,0.1079,0.1094,0.111,0.1123,0.113,0.1138,0.1144,0.115,0.1155,0.1157,0.1158,0.1158,0.1155,0.1155,0.1157,0.1153,0.1251,0.115,0.1148,0.1147,0.1171,0.1306,0.1321,0.116,0.116,0.116,0,0,0.1079,0.1094,0.1103,0.1122,0.1131,0.1138,0.1142,0.1155,0.1153,0.1157,0.1155,0.1157,0.1155,0.1151,0.1151,0.1151,0.1252,0.1147,0.1146,0.1171,0.1308,0.1324,0.1339,0.116,0.116,0.116,0,0,0.1086,0.1101,0.1114,0.1122,0.1138,0.1142,0.1146,0.1157,0.1156,0.1157,0.1155,0.1157,0.1154,0.1151,0.1148,0.1143,0.1244,0.1137,0.1151,0.1281,0.1297,0.1312,0.15,0.1531,0.1133,0.1133,0.1133,0,0.1082,0.11,0.1118,0.1128,0.1129,0.1143,0.1145,0.1149,0.1156,0.1163,0.1157,0.1176,0.1155,0.1167,0.1151,0.1141,0.1265,0.1153,0.1285,0.1301,0.1316,0.1505,0.154,0.1132,0.1133,0.1133,0.1133,0,0.1098,0.1106,0.1114,0.1128,0.1133,0.114,0.1144,0.1152,0.1153,0.1163,0.1185,0.1176,0.1209,0.1174,0.1153,0.123,0.1303,0.1274,0.1296,0.1333,0.1528,0.1565,0.1131,0.1132,0.1132,0.1132,0,0,0.1099,0.1119,0.112,0.1123,0.113,0.1139,0.1139,0.1152,0.1195,0.1185,0.1256,0.1196,0.1237,0.1238,0.1226,0.1292,0.1486,0.1327,0.1334,0.153,0.1857,0.1868,0.191,0.1499,0.1504,0.1508,0.1966,0,0.1099,0.1108,0.1118,0.1122,0.1123,0.1134,0.1146,0.1163,0.1199,0.128,0.1277,0.1347,0.1252,0.1306,0.1351,0.1462,0.1578,0.137,0.1779,0.1792,0.1809,0.1949,0.1873,0.227,0.2003,0.2009,0.2014,0,0.1106,0.1109,0.1108,0.1125,0.1131,0.1144,0.1195,0.1218,0.1314,0.1361,0.143,0.1484,0.1574,0.151,0.174,0.1629,0.1755,0.1826,0.1846,0.1887,0.187,0.218,0.2348,0.2251,0.2072,0.2067,0.2063,0,0.1092,0.1103,0.1099,0.1102,0.1127,0.1142,0.1172,0.1244,0.132,0.147,0.1593,0.168,0.1817,0.1931,0.2046,0.195,0.2348,0.2246,0.2386,0.2392,0.2422,0.2419,0.2553,0.2462,0.2461,0.246,0.2458,0,0.1084,0.1084,0.1102,0.1103,0.1145,0.1157,0.1254,0.1303,0.1457,0.1608,0.167,0.1843,0.1936,0.2144,0.2197,0.244,0.2499,0.2458,0.252,0.2415,0.2407,0.2394,0.2307,0.2477,0.2473,0.247,0.2467,0,0.1088,0.1077,0.1097,0.1125,0.1142,0.1189,0.1323,0.1441,0.1553,0.1783,0.1863,0.2071,0.2327,0.2433,0.2688,0.2692,0.2811,0.2943,0.2836,0.2872,0.2825,0.274,0.2881,0.28,0.3197,0.32,0.3203,0,0.1103,0.1111,0.114,0.1191,0.1216,0.1296,0.1395,0.149,0.1641,0.1919,0.207,0.2363,0.2552,0.2931,0.3004,0.3199,0.3009,0.3253,0.2995,0.2876,0.2829,0.263,0.2534,0.3077,0.3079,0.308,0.3081,0,0.1188,0.1194,0.1234,0.1313,0.1401,0.1482,0.162,0.1716,0.1884,0.2061,0.2325,0.2485,0.2836,0.2993,0.3231,0.3296,0.3064,0.3281,0.3192,0.2792,0.2558,0.249,0.2755,0.3091,0.309,0.3089,0.3088,0.3088,0.1314,0.1361,0.1428,0.149,0.1575,0.1652,0.1703,0.1861,0.2027,0.223,0.2429,0.2616,0.2898,0.3185,0.3238,0.3274,0.3172,0.3194,0.3137,0.2975,0.2754,0.3057,0.3396,0.3397,0.3397,0.3398,0.3398,0,0.1497,0.1534,0.1619,0.1669,0.1735,0.1742,0.186,0.1889,0.2016,0.2231,0.2402,0.2675,0.2874,0.3029,0.3198,0.3139,0.2933,0.3071,0.2757,0.2692,0.3046,0.2887,0.3084,0.3084,0.3084,0.3084,0.3084,0.3084,0.162,0.172,0.1709,0.18,0.1819,0.1847,0.1862,0.1892,0.1983,0.2139,0.2271,0.2433,0.273,0.298,0.2999,0.2944,0.2683,0.2628,0.2569,0.278,0.2783,0.2786,0.2615,0.2752,0.2751,0.2101,0.2096,0.2092]},{"header":{"parameterUnit":"m.s-1","parameterCategory":2,"la1":30.2991,"la2":30.254,"lo1":-89.0895,"lo2":-89.0444,"dy":0.0017,"dx":0.0017,"nx":28,"ny":28,"refTime":"2024-05-24T09:00:00:Z","depth":"0","parameterNumber":3,"parameterNumberName":"V-component_of_CURRENTS"},"data":[0,0,0,0,0,0,0,0,0,0,0,0,0,0,0,0,0,0,0,0,0,0,0,0,0,0,0,0,0,0,0,0,0,0,0,0,0,0,0,0,0,0,0,0,0,0,0,0,0,0,0,0,0,0,0,0,0,0,-0.0059,-0.0059,0,-0.0121,-0.0121,-0.0122,-0.0137,-0.0137,-0.0136,-0.0136,-0.0206,-0.0209,-0.0211,0,0,0,0,0,0,0,0,0,0,0,0,0,0.0013,0.0012,-0.0059,-0.0059,-0.006,-0.0121,-0.0121,-0.0122,-0.0137,-0.0137,-0.0136,-0.0135,-0.0206,-0.0208,-0.0211,0,0,0,0,0,0,0,0,0,0,0,0,0,-0.0031,0.0011,-0.0058,-0.0074,-0.0076,-0.012,-0.0121,-0.0123,-0.0137,-0.0137,-0.0136,-0.0135,-0.0205,-0.0208,-0.0212,-0.0246,0,0,-0.0222,-0.0224,0,0,0,0,0,0,0,0,-0.0028,-0.0034,-0.0071,-0.0073,-0.0076,-0.012,-0.0122,-0.0164,-0.0137,-0.0115,-0.0136,-0.0135,-0.0179,-0.0184,-0.0198,-0.025,-0.0253,-0.0222,-0.0225,-0.0226,-0.0227,0,0,0,0,0,0,0,-0.0025,-0.0031,-0.0084,-0.0072,-0.0075,-0.009,-0.0096,-0.013,-0.015,-0.0116,-0.0118,-0.0124,-0.018,-0.0194,-0.02,-0.0254,-0.0222,-0.0225,-0.0228,-0.0229,-0.035,-0.0352,0,0,0,0,0,0,-0.0016,-0.0028,-0.0082,-0.0085,-0.005,-0.0092,-0.0098,-0.0107,-0.015,-0.0155,-0.0125,-0.0125,-0.0189,-0.0196,-0.0202,-0.0258,-0.0226,-0.0229,-0.0231,-0.0349,-0.0351,-0.0352,0,0,0,0,0,0,-0.0014,-0.002,-0.0079,-0.0058,-0.0066,-0.0094,-0.0104,-0.0108,-0.0123,-0.0156,-0.0161,-0.0134,-0.0189,-0.0197,-0.0241,-0.026,-0.0231,-0.0234,-0.0348,-0.035,-0.0351,-0.0361,0,0,0,0,0,0,-0.0012,-0.0019,-0.0025,-0.0057,-0.0067,-0.0111,-0.0105,-0.011,-0.0128,-0.0128,-0.0166,-0.0172,-0.0189,-0.0236,-0.0245,-0.0264,-0.0237,-0.0346,-0.0349,-0.0351,-0.0359,-0.0363,-0.0366,0,0,0,0,0,-0.0009,-0.0025,-0.0025,-0.0032,-0.0073,-0.0111,-0.0118,-0.0135,-0.0129,-0.0144,-0.0169,-0.0171,-0.0256,-0.024,-0.025,-0.0271,-0.0345,-0.0348,-0.0351,-0.0358,-0.0362,-0.0366,0,0,0,0,0,0,0.0001,-0.0028,-0.003,-0.0053,-0.008,-0.0114,-0.0131,-0.0137,-0.0169,-0.0168,-0.019,-0.0199,-0.0243,-0.0259,-0.0241,-0.0312,-0.0299,-0.0304,-0.0301,-0.0306,-0.0309,-0.0255,-0.0239,0,0,0,0,0,0.0002,-0.0016,-0.0045,-0.0064,-0.0077,-0.0102,-0.0118,-0.013,-0.016,-0.0173,-0.0198,-0.0229,-0.0263,-0.0284,-0.0316,-0.036,-0.0309,-0.0379,-0.0382,-0.0385,-0.0349,-0.0289,-0.0282,-0.0361,-0.0361,-0.036,0,0,0.0,-0.0018,-0.0028,-0.0063,-0.0084,-0.0113,-0.0111,-0.0141,-0.0161,-0.0177,-0.0217,-0.0242,-0.0277,-0.0323,-0.0344,-0.0339,-0.0341,-0.0388,-0.039,-0.0351,-0.0291,-0.0282,-0.0275,-0.0362,-0.0362,-0.0362,0,0,-0.0017,-0.0028,-0.005,-0.0073,-0.0105,-0.0124,-0.0131,-0.0167,-0.0179,-0.0222,-0.0235,-0.0263,-0.0327,-0.0345,-0.0364,-0.0405,-0.0358,-0.0428,-0.0405,-0.0349,-0.034,-0.0332,-0.0266,-0.0252,-0.0432,-0.0432,-0.0432,0,-0.0017,-0.0045,-0.0064,-0.0091,-0.0105,-0.0128,-0.015,-0.0176,-0.0221,-0.0207,-0.0236,-0.0275,-0.033,-0.0341,-0.0375,-0.0409,-0.0357,-0.0388,-0.0348,-0.0339,-0.033,-0.0264,-0.0248,-0.0433,-0.0433,-0.0433,-0.0433,0,-0.0052,-0.0071,-0.0088,-0.0125,-0.0145,-0.0171,-0.0199,-0.0212,-0.0226,-0.0228,-0.0233,-0.0291,-0.0286,-0.0343,-0.0386,-0.0361,-0.0337,-0.0354,-0.0327,-0.0322,-0.0254,-0.0237,-0.0434,-0.0434,-0.0434,-0.0434,0,0,-0.0053,-0.0101,-0.0106,-0.0101,-0.0159,-0.0161,-0.0198,-0.0201,-0.014,-0.0216,-0.0136,-0.0263,-0.0235,-0.0254,-0.0296,-0.0291,-0.0234,-0.0304,-0.0301,-0.0216,-0.0082,-0.01,-0.0082,-0.0234,-0.0231,-0.0228,-0.0061,0,-0.0071,-0.0106,-0.0134,-0.0148,-0.0157,-0.0172,-0.0168,-0.0166,-0.0148,-0.0076,-0.0124,-0.0074,-0.0217,-0.0175,-0.0206,-0.0202,-0.0187,-0.0276,-0.0116,-0.011,-0.0109,-0.0063,-0.0115,0.0028,-0.0044,-0.0041,-0.0039,0,-0.0094,-0.0106,-0.0126,-0.0097,-0.0095,-0.0095,-0.0021,-0.0013,0.0059,0.0093,0.012,0.0127,0.0117,0.0022,0.0019,-0.0022,-0.0049,-0.0071,-0.0064,-0.0053,-0.0095,0.0011,0.0062,-0.0137,-0.0012,-0.0014,-0.0016,0,-0.0057,-0.0087,-0.0086,-0.0093,-0.0079,-0.0048,-0.0015,0.0054,0.0152,0.0253,0.0371,0.0339,0.0408,0.0334,0.0228,0.0161,0.0263,0.0177,0.0139,0.0139,0.0142,0.0137,0.0044,0.0211,0.0211,0.021,0.021,0,-0.0054,-0.0039,-0.005,-0.004,0.0053,0.0036,0.0191,0.0231,0.0375,0.0557,0.0499,0.0652,0.0496,0.0513,0.0362,0.0317,0.0374,0.0185,0.0192,0.0132,0.0124,-0.0012,-0.0104,0.0217,0.0215,0.0214,0.0213,0,0.0015,-0.0029,0.0021,0.005,0.0076,0.0172,0.0343,0.0503,0.0583,0.0832,0.0889,0.0947,0.0949,0.0781,0.0714,0.0547,0.0379,0.0438,0.0374,0.0369,0.0104,0.0015,0.0043,-0.003,0.0441,0.0442,0.0443,0,0.006,0.0078,0.0131,0.022,0.0252,0.0386,0.0531,0.0617,0.0795,0.1027,0.1181,0.1248,0.1326,0.1195,0.0883,0.0666,0.0465,0.0506,0.0334,0.0117,0.0024,-0.0037,-0.0107,0.0339,0.0339,0.0338,0.0338,0,0.0224,0.0235,0.0297,0.0445,0.0586,0.0745,0.0927,0.1067,0.1219,0.139,0.1628,0.1706,0.1556,0.1324,0.0995,0.0792,0.036,0.0495,0.0296,-0.0028,-0.0118,-0.0195,0.0202,0.0336,0.0336,0.0336,0.0337,0.0337,0.0418,0.051,0.0605,0.0737,0.0894,0.1094,0.1234,0.1416,0.165,0.1877,0.1939,0.2031,0.1674,0.1195,0.0922,0.0324,0.0362,0.0138,0.0067,0.004,-0.01,0.0295,0.0405,0.0405,0.0406,0.0406,0.0407,0,0.07,0.0771,0.0917,0.107,0.1234,0.1263,0.1511,0.1636,0.1859,0.2045,0.2194,0.2029,0.1583,0.1058,0.0302,-0.005,-0.021,-0.0242,-0.0381,-0.0419,-0.0045,-0.0129,-0.0162,-0.0162,-0.0162,-0.0161,-0.0161,-0.0161,0.088,0.106,0.1071,0.1338,0.1432,0.1636,0.1751,0.192,0.2044,0.2205,0.2202,0.2218,0.178,0.0561,-0.0315,-0.051,-0.0749,-0.0762,-0.0848,-0.0679,-0.0652,-0.0626,-0.0733,-0.0891,-0.0892,-0.1232,-0.1236,-0.1238]}],[{"header":{"parameterUnit":"m.s-1","parameterCategory":2,"la1":30.2991,"la2":30.254,"lo1":-89.0895,"lo2":-89.0444,"dy":0.0017,"dx":0.0017,"nx":28,"ny":28,"refTime":"2024-05-24T09:00:00:Z","depth":"2","parameterNumber":2,"parameterNumberName":"U-component_of_CURRENTS"},"data":[0,0,0,0,0,0,0,0,0,0,0,0,0,0,0,0,0,0,0,0,0,0,0,0,0,0,0,0,0,0,0,0,0,0,0,0,0,0,0,0,0,0,0,0,0,0,0,0,0,0,0,0,0,0,0,0,0,0,0.1128,0.1129,0,0.1149,0.1149,0.1149,0.1157,0.1157,0.1157,0.1157,0.1166,0.1167,0.1167,0,0,0,0,0,0,0,0,0,0,0,0,0,0.1073,0.1074,0.1128,0.1129,0.1129,0.1149,0.1149,0.1149,0.1157,0.1157,0.1157,0.1157,0.1166,0.1167,0.1167,0,0,0,0,0,0,0,0,0,0,0,0,0,0.1094,0.1074,0.1128,0.1137,0.1138,0.1149,0.1149,0.1149,0.1157,0.1157,0.1157,0.1157,0.1166,0.1167,0.1167,0.1165,0,0,0.1168,0.1168,0,0,0,0,0,0,0,0,0.1093,0.1096,0.1135,0.1136,0.1137,0.1152,0.1133,0.1155,0.1157,0.1148,0.1157,0.1157,0.1162,0.1162,0.1163,0.1166,0.1166,0.1168,0.1168,0.1168,0.1168,0,0,0,0,0,0,0,0.1091,0.1095,0.1135,0.1136,0.1137,0.1132,0.1135,0.1137,0.1152,0.1149,0.115,0.1155,0.1162,0.1163,0.1164,0.1166,0.1168,0.1168,0.1168,0.1168,0.1169,0.1168,0,0,0,0,0,0,0.1093,0.1094,0.1134,0.1136,0.1117,0.1133,0.1136,0.1146,0.1152,0.1154,0.1155,0.1155,0.1163,0.1163,0.1164,0.1161,0.1168,0.1168,0.1168,0.1169,0.1169,0.1168,0,0,0,0,0,0,0.1092,0.1097,0.1133,0.1116,0.112,0.1134,0.1144,0.1146,0.1152,0.1157,0.1158,0.1159,0.1163,0.1164,0.1167,0.1161,0.1168,0.1168,0.1169,0.1169,0.1169,0.1156,0,0,0,0,0,0,0.1091,0.1097,0.1103,0.1116,0.1122,0.1144,0.1144,0.1146,0.1155,0.1156,0.1161,0.1162,0.1163,0.1167,0.1167,0.1162,0.1169,0.1169,0.1169,0.1169,0.1156,0.1155,0.1154,0,0,0,0,0,0.1089,0.11,0.1103,0.1108,0.1131,0.1145,0.1147,0.1155,0.1155,0.116,0.116,0.1162,0.1165,0.1167,0.1167,0.1162,0.1169,0.1169,0.1169,0.1157,0.1155,0.1154,0,0,0,0,0,0,0.1079,0.1103,0.1106,0.1124,0.1135,0.1147,0.1154,0.1157,0.1161,0.1162,0.1162,0.1163,0.1164,0.1166,0.1167,0.1162,0.1167,0.1167,0.1158,0.1157,0.1155,0.118,0.1169,0,0,0,0,0,0.108,0.1096,0.1112,0.1126,0.1133,0.1142,0.1149,0.1155,0.1161,0.1163,0.1165,0.1165,0.1163,0.1162,0.1164,0.1162,0.1233,0.1158,0.1157,0.1156,0.1177,0.1288,0.13,0.1168,0.1168,0.1168,0,0,0.108,0.1096,0.1104,0.1125,0.1134,0.1142,0.1146,0.116,0.1159,0.1163,0.1162,0.1164,0.1162,0.1159,0.1159,0.116,0.1231,0.1156,0.1155,0.1177,0.1289,0.1303,0.1315,0.1167,0.1167,0.1167,0,0,0.1087,0.1102,0.1115,0.1124,0.1141,0.1146,0.115,0.1162,0.1162,0.1164,0.1162,0.1164,0.1162,0.1159,0.1156,0.1151,0.1224,0.1147,0.1159,0.1266,0.1279,0.1291,0.1406,0.1428,0.1144,0.1144,0.1144,0,0.1083,0.1101,0.112,0.1131,0.1133,0.1147,0.115,0.1154,0.1162,0.117,0.1164,0.1182,0.1163,0.1173,0.1158,0.1149,0.1239,0.1161,0.1268,0.1282,0.1295,0.1409,0.1435,0.1143,0.1143,0.1143,0.1143,0,0.1099,0.1107,0.1116,0.1131,0.1136,0.1144,0.115,0.1158,0.1159,0.117,0.1189,0.1181,0.1209,0.1179,0.116,0.1223,0.1268,0.1259,0.1278,0.1308,0.1426,0.1453,0.1142,0.1142,0.1142,0.1143,0,0,0.11,0.112,0.1122,0.1124,0.1134,0.1143,0.1144,0.1157,0.1195,0.1189,0.1249,0.1199,0.1235,0.1235,0.1224,0.1277,0.1414,0.1305,0.131,0.1431,0.1688,0.1634,0.1658,0.1444,0.1448,0.1451,0.1738,0,0.11,0.111,0.1121,0.1125,0.1126,0.1138,0.1151,0.1168,0.1198,0.1268,0.1267,0.1327,0.1247,0.1293,0.1328,0.141,0.1484,0.1339,0.1631,0.164,0.1598,0.1686,0.1475,0.1705,0.1764,0.1769,0.1772,0,0.1108,0.1111,0.111,0.1127,0.1133,0.1147,0.1191,0.1213,0.1298,0.1337,0.1397,0.1444,0.1513,0.1464,0.1624,0.1551,0.1624,0.167,0.1683,0.1659,0.1635,0.1682,0.1752,0.1817,0.1813,0.181,0.1807,0,0.1092,0.1103,0.11,0.1102,0.1128,0.1143,0.1173,0.1238,0.131,0.143,0.1531,0.1602,0.1711,0.1788,0.1856,0.1786,0.2068,0.1991,0.2011,0.201,0.1899,0.1879,0.2137,0.2136,0.2136,0.2135,0.2134,0,0.1083,0.1083,0.1102,0.1102,0.1143,0.1156,0.1245,0.1287,0.1428,0.1555,0.1597,0.1732,0.1808,0.1957,0.1975,0.2097,0.2182,0.2055,0.209,0.1885,0.1862,0.1998,0.1978,0.2146,0.2143,0.2141,0.2139,0,0.1082,0.1075,0.1094,0.1123,0.1139,0.1185,0.1316,0.1415,0.1513,0.1702,0.177,0.1923,0.2086,0.2156,0.2328,0.2279,0.2376,0.2396,0.2151,0.2148,0.2218,0.2194,0.246,0.246,0.2461,0.2461,0.2462,0,0.1094,0.1098,0.1132,0.1176,0.1201,0.1277,0.1362,0.1459,0.1582,0.1807,0.192,0.213,0.2233,0.2449,0.242,0.249,0.2493,0.2343,0.2122,0.2249,0.2257,0.2232,0.2207,0.1991,0.1987,0.1985,0.1982,0,0.1153,0.1162,0.1193,0.1266,0.1343,0.1408,0.1524,0.1611,0.1754,0.1883,0.2066,0.2165,0.2344,0.2302,0.238,0.2364,0.2294,0.2285,0.256,0.1908,0.1821,0.1823,0.1813,0.1957,0.196,0.1961,0.1963,0.1964,0.1242,0.1281,0.133,0.1362,0.1464,0.1501,0.1516,0.1636,0.1748,0.1848,0.2036,0.2081,0.2142,0.2106,0.2109,0.2096,0.2202,0.2078,0.2081,0.209,0.195,0.1865,0.1987,0.1989,0.1991,0.1993,0.1995,0,0.1329,0.1353,0.1428,0.1452,0.1501,0.1536,0.1609,0.1582,0.1617,0.1742,0.1815,0.171,0.1711,0.1801,0.173,0.1746,0.1674,0.1693,0.1568,0.1595,0.1619,0.1449,0.1357,0.1355,0.1354,0.1352,0,0,0.1399,0.1429,0.1391,0.1418,0.146,0.1498,0.1481,0.1429,0.1465,0.1414,0.1421,0.153,0.1693,0.1462,0.1465,0.1411,0.1481,0.1359,0.1867,0.1742,0.1763,0.1838,0.1608,0,0,0,0,0]},{"header":{"parameterUnit":"m.s-1","parameterCategory":2,"la1":30.2991,"la2":30.254,"lo1":-89.0895,"lo2":-89.0444,"dy":0.0017,"dx":0.0017,"nx":28,"ny":28,"refTime":"2024-05-24T09:00:00:Z","depth":"2","parameterNumber":3,"parameterNumberName":"V-component_of_CURRENTS"},"data":[0,0,0,0,0,0,0,0,0,0,0,0,0,0,0,0,0,0,0,0,0,0,0,0,0,0,0,0,0,0,0,0,0,0,0,0,0,0,0,0,0,0,0,0,0,0,0,0,0,0,0,0,0,0,0,0,0,0,-0.0185,-0.0185,0,-0.0243,-0.0244,-0.0245,-0.026,-0.0259,-0.0259,-0.0258,-0.0327,-0.0329,-0.0332,0,0,0,0,0,0,0,0,0,0,0,0,0,-0.0124,-0.0124,-0.0185,-0.0186,-0.0186,-0.0243,-0.0244,-0.0245,-0.026,-0.0259,-0.0259,-0.0258,-0.0327,-0.0329,-0.0332,0,0,0,0,0,0,0,0,0,0,0,0,0,-0.0163,-0.0125,-0.0185,-0.02,-0.0202,-0.0243,-0.0244,-0.0245,-0.026,-0.0259,-0.0258,-0.0258,-0.0326,-0.0329,-0.0332,-0.0365,0,0,-0.0342,-0.0344,0,0,0,0,0,0,0,0,-0.0161,-0.0166,-0.0197,-0.0199,-0.0201,-0.0243,-0.0248,-0.0286,-0.026,-0.0238,-0.0258,-0.0258,-0.03,-0.0306,-0.0319,-0.0368,-0.0371,-0.0343,-0.0345,-0.0346,-0.0347,0,0,0,0,0,0,0,-0.0158,-0.0163,-0.0208,-0.0198,-0.02,-0.0217,-0.0222,-0.0255,-0.0273,-0.024,-0.0241,-0.0247,-0.0301,-0.0315,-0.032,-0.0372,-0.0343,-0.0345,-0.0348,-0.0349,-0.0465,-0.0466,0,0,0,0,0,0,-0.0149,-0.0161,-0.0207,-0.021,-0.0179,-0.0218,-0.0224,-0.0231,-0.0272,-0.0278,-0.0248,-0.0248,-0.031,-0.0316,-0.0323,-0.0375,-0.0346,-0.0349,-0.0351,-0.0464,-0.0465,-0.0466,0,0,0,0,0,0,-0.0147,-0.0152,-0.0204,-0.0186,-0.0194,-0.022,-0.0228,-0.0232,-0.0245,-0.0278,-0.0283,-0.0256,-0.031,-0.0318,-0.036,-0.0377,-0.0351,-0.0354,-0.0463,-0.0464,-0.0466,-0.0472,0,0,0,0,0,0,-0.0145,-0.0152,-0.0155,-0.0186,-0.0194,-0.0233,-0.0229,-0.0234,-0.025,-0.025,-0.0287,-0.0292,-0.031,-0.0355,-0.0364,-0.0381,-0.0356,-0.0461,-0.0463,-0.0465,-0.047,-0.0474,-0.0476,0,0,0,0,0,-0.0143,-0.0154,-0.0155,-0.0161,-0.0198,-0.0234,-0.0241,-0.0257,-0.0251,-0.0264,-0.0289,-0.0291,-0.0374,-0.0359,-0.0369,-0.0387,-0.046,-0.0463,-0.0465,-0.0469,-0.0473,-0.0476,0,0,0,0,0,0,-0.0131,-0.0158,-0.0159,-0.0178,-0.0204,-0.0236,-0.0251,-0.0258,-0.0288,-0.0288,-0.031,-0.0319,-0.036,-0.0376,-0.0359,-0.0427,-0.0416,-0.0421,-0.0416,-0.042,-0.0423,-0.0374,-0.0359,0,0,0,0,0,-0.0129,-0.0145,-0.0171,-0.0187,-0.0199,-0.0223,-0.0239,-0.025,-0.0279,-0.0291,-0.0316,-0.0346,-0.0379,-0.04,-0.0431,-0.0473,-0.0456,-0.049,-0.0493,-0.0495,-0.0463,-0.0445,-0.0442,-0.0474,-0.0474,-0.0474,0,0,-0.0128,-0.0146,-0.0154,-0.0186,-0.0206,-0.0233,-0.0232,-0.0259,-0.0279,-0.0295,-0.0333,-0.0358,-0.0392,-0.0437,-0.0457,-0.0452,-0.0489,-0.0499,-0.05,-0.0466,-0.0447,-0.0443,-0.044,-0.0476,-0.0476,-0.0476,0,0,-0.0143,-0.0151,-0.0171,-0.0193,-0.0223,-0.0242,-0.0248,-0.0282,-0.0293,-0.0336,-0.0349,-0.0376,-0.0438,-0.0456,-0.0475,-0.0513,-0.0502,-0.0534,-0.0513,-0.0498,-0.0493,-0.0489,-0.0502,-0.0499,-0.0538,-0.0538,-0.0538,0,-0.014,-0.0165,-0.0183,-0.0209,-0.0222,-0.0244,-0.0265,-0.029,-0.0333,-0.0323,-0.0349,-0.0394,-0.0441,-0.0459,-0.0485,-0.0517,-0.0509,-0.0498,-0.0497,-0.0493,-0.0489,-0.0502,-0.0499,-0.0539,-0.0539,-0.0539,-0.0539,0,-0.0172,-0.019,-0.0205,-0.024,-0.0259,-0.0283,-0.031,-0.0323,-0.0336,-0.0343,-0.0356,-0.041,-0.0414,-0.0461,-0.0494,-0.0492,-0.0499,-0.05,-0.048,-0.0485,-0.0501,-0.0497,-0.054,-0.0539,-0.0539,-0.0539,0,0,-0.0169,-0.0216,-0.0221,-0.0219,-0.0271,-0.0276,-0.0308,-0.0315,-0.0278,-0.0339,-0.0295,-0.039,-0.0372,-0.0392,-0.0429,-0.0443,-0.0452,-0.0462,-0.0461,-0.0459,-0.0428,-0.0513,-0.0517,-0.0445,-0.0443,-0.0442,-0.0464,0,-0.0185,-0.0219,-0.0246,-0.0262,-0.0272,-0.0287,-0.0288,-0.029,-0.029,-0.0256,-0.0294,-0.0276,-0.036,-0.0344,-0.0375,-0.0416,-0.0435,-0.0446,-0.0435,-0.0435,-0.0495,-0.0513,-0.0452,-0.0472,-0.046,-0.046,-0.0459,0,-0.0206,-0.0219,-0.0239,-0.0222,-0.0222,-0.0225,-0.0179,-0.018,-0.0147,-0.0135,-0.0126,-0.0138,-0.017,-0.0226,-0.0295,-0.0294,-0.0354,-0.0402,-0.0403,-0.0463,-0.051,-0.0458,-0.0465,-0.0452,-0.0453,-0.0453,-0.0454,0,-0.0169,-0.0202,-0.0204,-0.0211,-0.0209,-0.0184,-0.0162,-0.0125,-0.0064,-0.0028,0.0027,-0.0014,0.0003,-0.0084,-0.0211,-0.0237,-0.0275,-0.0319,-0.0452,-0.046,-0.0394,-0.0399,-0.0341,-0.0341,-0.0341,-0.0341,-0.0341,0,-0.0165,-0.0156,-0.0172,-0.0164,-0.01,-0.0114,-0.0009,0.0008,0.0089,0.0173,0.012,0.0165,0.0047,-0.0003,-0.0145,-0.029,-0.0221,-0.0439,-0.0462,-0.0404,-0.0409,-0.037,-0.0373,-0.0342,-0.0342,-0.0342,-0.0341,0,-0.0109,-0.0144,-0.011,-0.0094,-0.008,-0.0009,0.0105,0.0199,0.0239,0.0346,0.0367,0.034,0.0233,0.0094,-0.0038,-0.0187,-0.0328,-0.0389,-0.0337,-0.0356,-0.0547,-0.055,-0.0552,-0.0555,-0.0558,-0.056,-0.0562,0,-0.008,-0.007,-0.0032,0.0005,0.0022,0.0119,0.0205,0.0281,0.0363,0.043,0.0476,0.0431,0.0339,0.0105,-0.0097,-0.0334,-0.0363,-0.0448,-0.0509,-0.0541,-0.0564,-0.0563,-0.0563,-0.0433,-0.0433,-0.0434,-0.0434,0,-0.0002,0.0012,0.0048,0.01,0.0182,0.0267,0.0363,0.0452,0.0524,0.0563,0.0553,0.0486,0.0314,0.0088,-0.019,-0.0346,-0.042,-0.0473,-0.0458,-0.0414,-0.0437,-0.0457,-0.0458,-0.0438,-0.0438,-0.0437,-0.0437,-0.0437,0.0076,0.0127,0.014,0.0172,0.0284,0.0328,0.0382,0.0467,0.0532,0.057,0.055,0.0479,0.0316,-0.0059,-0.027,-0.0451,-0.0491,-0.0584,-0.0577,-0.0571,-0.0579,-0.0607,-0.0643,-0.0643,-0.0644,-0.0645,-0.0645,0,0.0079,0.0111,0.0184,0.02,0.0267,0.0325,0.0417,0.0447,0.0462,0.0577,0.0533,0.0366,0.0139,-0.002,-0.0287,-0.0524,-0.0486,-0.0594,-0.0483,-0.0479,-0.0476,-0.0473,-0.0512,-0.0512,-0.0512,-0.0512,0,0,0.0083,0.0078,0.0065,0.0088,0.0163,0.0272,0.0313,0.0345,0.0422,0.0468,0.0511,0.0478,0.0252,0.0071,-0.0196,-0.0336,-0.0358,-0.0368,-0.0456,-0.029,-0.0283,-0.0457,-0.0451,0,0,0,0,0]}],[{"header":{"parameterUnit":"m.s-1","parameterCategory":2,"la1":30.2991,"la2":30.254,"lo1":-89.0895,"lo2":-89.0444,"dy":0.0017,"dx":0.0017,"nx":28,"ny":28,"refTime":"2024-05-24T09:00:00:Z","depth":"4","parameterNumber":2,"parameterNumberName":"U-component_of_CURRENTS"},"data":[0,0,0,0,0,0,0,0,0,0,0,0,0,0,0,0,0,0,0,0,0,0,0,0,0,0,0,0,0,0,0,0,0,0,0,0,0,0,0,0,0,0,0,0,0,0,0,0,0,0,0,0,0,0,0,0,0,0,0.0576,0.0576,0,0.0624,0.0624,0.0625,0.0678,0.0679,0.068,0.068,0.0742,0.0742,0.0743,0,0,0,0,0,0,0,0,0,0,0,0,0,0.0548,0.0548,0.0576,0.0576,0.0577,0.0623,0.0624,0.0625,0.0678,0.0679,0.068,0.0681,0.0741,0.0742,0.0744,0,0,0,0,0,0,0,0,0,0,0,0,0,0.0575,0.0548,0.0576,0.0608,0.0612,0.0623,0.0624,0.0625,0.0678,0.0679,0.068,0.0681,0.0741,0.0742,0.0744,0.0732,0,0,0.0748,0.0749,0,0,0,0,0,0,0,0,0.0573,0.0576,0.0603,0.0606,0.061,0.0645,0.0637,0.0661,0.0678,0.0654,0.068,0.0681,0.0709,0.0713,0.0721,0.0734,0.0737,0.0748,0.0749,0.075,0.075,0,0,0,0,0,0,0,0.0571,0.0574,0.0595,0.0603,0.0607,0.0626,0.0631,0.0642,0.0676,0.0656,0.0659,0.0663,0.0711,0.0719,0.0723,0.0738,0.0748,0.075,0.075,0.0751,0.0826,0.0827,0,0,0,0,0,0,0.0562,0.0572,0.0594,0.0597,0.0593,0.0626,0.0632,0.0633,0.0675,0.0683,0.0662,0.0665,0.0716,0.0721,0.0725,0.0797,0.075,0.0751,0.0752,0.0824,0.0826,0.0827,0,0,0,0,0,0,0.0561,0.0563,0.0592,0.0585,0.059,0.0625,0.0627,0.0634,0.066,0.068,0.0688,0.0683,0.0717,0.0723,0.0752,0.0796,0.0752,0.0753,0.0823,0.0825,0.0826,0.0886,0,0,0,0,0,0,0.056,0.0562,0.0567,0.0584,0.059,0.0608,0.0626,0.0634,0.0659,0.0664,0.07,0.0706,0.0719,0.0749,0.0753,0.0798,0.0754,0.0822,0.0824,0.0826,0.0883,0.089,0.0896,0,0,0,0,0,0.0558,0.0556,0.0566,0.0569,0.0593,0.0608,0.0613,0.0642,0.0659,0.067,0.0698,0.0706,0.0766,0.0751,0.0755,0.0801,0.0821,0.0823,0.0826,0.088,0.0888,0.0895,0,0,0,0,0,0,0.0544,0.0562,0.0573,0.0577,0.0596,0.0617,0.0631,0.0648,0.0678,0.0693,0.071,0.0718,0.0765,0.0764,0.0747,0.0828,0.0798,0.0802,0.0838,0.0846,0.0852,0.0881,0.0756,0,0,0,0,0,0.0542,0.0548,0.0567,0.0572,0.0583,0.061,0.0622,0.0645,0.0669,0.0685,0.0714,0.0744,0.0774,0.0794,0.0816,0.0849,0.0852,0.0884,0.089,0.0895,0.0921,0.0942,0.0953,0.0835,0.0835,0.0835,0,0,0.0535,0.0547,0.0551,0.057,0.059,0.0611,0.0621,0.0649,0.0678,0.0685,0.0741,0.0766,0.0786,0.0835,0.0857,0.0844,0.0928,0.0899,0.0903,0.0926,0.0945,0.0957,0.0967,0.0837,0.0836,0.0836,0,0,0.0528,0.0541,0.0549,0.0568,0.0601,0.062,0.063,0.0668,0.0701,0.0745,0.0768,0.0816,0.0855,0.0889,0.0906,0.0955,0.0959,0.0968,0.103,0.1049,0.1059,0.1068,0.1079,0.1089,0.0974,0.0974,0.0974,0,0.0524,0.0537,0.0554,0.0572,0.0593,0.0625,0.0648,0.068,0.0728,0.0766,0.0773,0.0873,0.0885,0.0956,0.0986,0.0974,0.0984,0.0999,0.1059,0.1067,0.1076,0.1085,0.1095,0.0977,0.0977,0.0976,0.0976,0,0.0524,0.0544,0.0552,0.0588,0.0612,0.0637,0.0681,0.0728,0.0776,0.0815,0.0907,0.0939,0.1007,0.1019,0.1024,0.1102,0.1089,0.1061,0.1041,0.1091,0.1097,0.1107,0.0982,0.0981,0.098,0.0979,0,0,0.0492,0.0544,0.0549,0.058,0.0628,0.0651,0.0711,0.0777,0.0836,0.0904,0.0976,0.1058,0.1103,0.1127,0.1148,0.1176,0.1236,0.116,0.1159,0.1175,0.1286,0.1191,0.1191,0.1223,0.1225,0.1227,0.1265,0,0.0493,0.0531,0.0557,0.0607,0.0636,0.0692,0.0744,0.0814,0.0883,0.0958,0.1028,0.1102,0.1134,0.1181,0.1223,0.123,0.1266,0.1229,0.1233,0.1233,0.1145,0.12,0.1233,0.1271,0.1274,0.1275,0.1276,0,0.0485,0.0517,0.0563,0.064,0.0659,0.0706,0.0814,0.0871,0.0977,0.1031,0.1136,0.1175,0.1269,0.1258,0.1347,0.1327,0.1332,0.1327,0.1327,0.123,0.1156,0.1211,0.1292,0.1291,0.129,0.1289,0.1288,0,0.046,0.0523,0.0566,0.0589,0.0675,0.0736,0.0807,0.0914,0.0977,0.1097,0.1143,0.1253,0.1313,0.1352,0.1371,0.1371,0.1418,0.1399,0.1322,0.1314,0.1361,0.1351,0.1453,0.1453,0.1453,0.1453,0.1453,0,0.0448,0.0482,0.0573,0.06,0.068,0.0753,0.0861,0.0941,0.1048,0.1113,0.1204,0.1256,0.1343,0.1372,0.1383,0.1382,0.1435,0.1356,0.1326,0.1382,0.1375,0.1367,0.1356,0.1455,0.1454,0.1454,0.1454,0,0.0412,0.046,0.0521,0.0631,0.0673,0.0748,0.0892,0.0957,0.1071,0.1153,0.1189,0.1285,0.1338,0.1373,0.1412,0.1391,0.1382,0.1357,0.1415,0.1384,0.127,0.1262,0.1309,0.1306,0.1303,0.1301,0.13,0,0.0396,0.042,0.054,0.0593,0.0656,0.0775,0.0839,0.0965,0.1017,0.1154,0.1162,0.1254,0.1303,0.1287,0.1336,0.1343,0.1326,0.1317,0.1321,0.1293,0.126,0.1256,0.1252,0.1296,0.1295,0.1294,0.1294,0,0.0365,0.0413,0.0466,0.0569,0.0653,0.0729,0.0835,0.0861,0.0983,0.1082,0.1123,0.116,0.1205,0.1241,0.1241,0.1243,0.1324,0.1292,0.1298,0.1302,0.1278,0.1247,0.1245,0.1285,0.1287,0.1287,0.1288,0,0.0344,0.0372,0.0444,0.0534,0.0613,0.0654,0.073,0.0789,0.085,0.0988,0.0998,0.1089,0.1183,0.1187,0.1183,0.1181,0.1191,0.1163,0.1176,0.1186,0.1129,0.1079,0.102,0,0,0,0,0,0.0326,0.034,0.0407,0.0486,0.0556,0.0603,0.0691,0.0757,0.0858,0.0859,0.0933,0.0967,0.1018,0.1065,0.1044,0.1135,0.1183,0.1107,0.1153,0.1239,0.1249,0.1193,0,0,0,0,0,0,0.0304,0.0349,0.0375,0.0408,0.0456,0.0512,0.0561,0.0641,0.065,0.0771,0.0796,0.0908,0.0957,0.1014,0.1024,0.1039,0.105,0.1174,0.1172,0.1234,0.1242,0.125,0.1196,0,0,0,0,0]},{"header":{"parameterUnit":"m.s-1","parameterCategory":2,"la1":30.2991,"la2":30.254,"lo1":-89.0895,"lo2":-89.0444,"dy":0.0017,"dx":0.0017,"nx":28,"ny":28,"refTime":"2024-05-24T09:00:00:Z","depth":"4","parameterNumber":3,"parameterNumberName":"V-component_of_CURRENTS"},"data":[0,0,0,0,0,0,0,0,0,0,0,0,0,0,0,0,0,0,0,0,0,0,0,0,0,0,0,0,0,0,0,0,0,0,0,0,0,0,0,0,0,0,0,0,0,0,0,0,0,0,0,0,0,0,0,0,0,0,0.0035,0.0036,0,0.0051,0.0051,0.0051,-0.0007,-0.0009,-0.0011,-0.0012,-0.0021,-0.002,-0.0018,0,0,0,0,0,0,0,0,0,0,0,0,0,-0.0044,-0.0042,0.0035,0.0036,0.0036,0.0051,0.0051,0.0051,-0.0007,-0.0009,-0.0011,-0.0013,-0.0021,-0.002,-0.0018,0,0,0,0,0,0,0,0,0,0,0,0,0,-0.0018,-0.0041,0.0035,0.0009,0.0007,0.0051,0.0051,0.0051,-0.0007,-0.0009,-0.0012,-0.0014,-0.0022,-0.002,-0.0018,0.0043,0,0,-0.0012,-0.0011,0,0,0,0,0,0,0,0,-0.0019,-0.0015,0.0013,0.0011,0.0009,0.0018,0.002,0.0048,-0.0006,-0.0002,-0.0012,-0.0015,-0.0007,-0.0007,0.0,0.0043,0.0042,-0.0012,-0.0011,-0.001,-0.0009,0,0,0,0,0,0,0,-0.0021,-0.0016,0.004,0.0014,0.0011,-0.0002,-0.0002,0.0025,0.0007,-0.0003,-0.0007,-0.0003,-0.0009,-0.0001,-0.0,0.0042,-0.0012,-0.001,-0.0009,-0.0008,0.0089,0.009,0,0,0,0,0,0,-0.0017,-0.0017,0.004,0.0041,-0.001,0.0001,0.0002,0.0017,0.0007,0.0004,-0.0001,-0.0005,-0.0004,-0.0003,-0.0001,0.0044,-0.001,-0.0008,-0.0007,0.0087,0.0089,0.0091,0,0,0,0,0,0,-0.0019,-0.0012,0.0039,0.0012,0.0017,0.0005,0.0022,0.0018,0.0016,0.001,0.0005,-0.0001,-0.0005,-0.0004,0.0026,0.0044,-0.0007,-0.0005,0.0086,0.0088,0.009,0.0151,0,0,0,0,0,0,-0.0021,-0.0012,-0.0,0.0013,0.0019,0.0073,0.0025,0.0021,0.0023,0.0017,0.0009,0.0006,-0.0007,0.0024,0.0028,0.0046,-0.0004,0.0084,0.0087,0.0089,0.0148,0.0155,0.0162,0,0,0,0,0,-0.0024,0.0021,0.0,0.0007,0.0037,0.0075,0.0078,0.0058,0.0026,0.0043,0.0033,0.0005,0.0042,0.0028,0.0032,0.005,0.0083,0.0086,0.0089,0.0144,0.0154,0.0162,0,0,0,0,0,0,0.0001,0.0019,-0.0003,0.0044,0.0055,0.0065,0.0084,0.0065,0.0072,0.0059,0.0038,0.0038,0.0066,0.0059,0.0042,0.0085,0.0053,0.0057,0.0093,0.0102,0.0109,0.0049,-0.0002,0,0,0,0,0,0.0011,0.0041,0.0049,0.0085,0.0092,0.0084,0.0094,0.0081,0.0089,0.0087,0.0082,0.0077,0.0089,0.0094,0.0106,0.0144,0.0072,0.0154,0.0161,0.0167,0.0122,0.0028,0.0021,0.0101,0.0101,0.0101,0,0,0.0033,0.0044,0.0062,0.0091,0.0094,0.0125,0.0084,0.011,0.0128,0.009,0.0118,0.011,0.0106,0.0139,0.015,0.0131,0.0119,0.0171,0.0176,0.0126,0.003,0.0021,0.0014,0.0103,0.0103,0.0102,0,0,0.0094,0.0098,0.0137,0.015,0.0161,0.0162,0.0169,0.0178,0.0171,0.0206,0.0173,0.0166,0.0205,0.0186,0.0186,0.0242,0.0163,0.0257,0.0242,0.0155,0.0145,0.0136,0.0079,0.0063,0.0258,0.0258,0.0258,0,0.0113,0.0154,0.0156,0.0191,0.0198,0.0179,0.021,0.0226,0.024,0.0218,0.0221,0.02,0.0217,0.0203,0.0226,0.0254,0.019,0.0214,0.0159,0.0148,0.0137,0.0079,0.0062,0.0261,0.0261,0.026,0.026,0,0.0194,0.0219,0.0249,0.0275,0.0291,0.032,0.0326,0.033,0.0314,0.0296,0.0272,0.0273,0.0226,0.0263,0.0269,0.0211,0.0188,0.018,0.0127,0.0132,0.0073,0.0054,0.0266,0.0265,0.0264,0.0263,0,0,0.0245,0.0292,0.0298,0.0291,0.0326,0.0334,0.0371,0.0363,0.0325,0.0337,0.0277,0.0309,0.0238,0.0229,0.022,0.0166,0.0087,0.0141,0.0135,0.0065,-0.0108,-0.0023,-0.0036,0.0054,0.0051,0.0047,-0.0105,0,0.0292,0.0348,0.0368,0.0401,0.0414,0.0401,0.0417,0.0401,0.0374,0.0322,0.0282,0.0232,0.0249,0.02,0.0152,0.009,0.003,0.0128,-0.0091,-0.0097,-0.0038,-0.0058,0.0035,-0.012,-0.0124,-0.0128,-0.013,0,0.0348,0.0367,0.0409,0.0397,0.0399,0.0419,0.0364,0.0376,0.0313,0.0273,0.0193,0.0144,0.0065,0.0078,-0.0072,-0.002,-0.0076,-0.0111,-0.0118,-0.0093,-0.005,-0.0136,-0.0166,-0.0164,-0.0161,-0.0158,-0.0156,0,0.033,0.0382,0.0396,0.0405,0.0412,0.0401,0.0392,0.0344,0.0313,0.0207,0.0152,0.0036,-0.0034,-0.0138,-0.0173,-0.0167,-0.0323,-0.0327,-0.0305,-0.0298,-0.036,-0.035,-0.0462,-0.0461,-0.0461,-0.0461,-0.046,0,0.035,0.0352,0.0382,0.0383,0.0353,0.0369,0.0313,0.0277,0.0221,0.0176,0.0097,0.0041,-0.01,-0.0174,-0.0228,-0.0307,-0.038,-0.0339,-0.0348,-0.0318,-0.0302,-0.0372,-0.0359,-0.0466,-0.0465,-0.0464,-0.0463,0,0.0305,0.0347,0.034,0.0348,0.0342,0.0306,0.0274,0.023,0.0185,0.0123,0.0083,-0.0007,-0.0114,-0.0196,-0.0351,-0.0367,-0.045,-0.0451,-0.039,-0.0388,-0.0367,-0.0349,-0.0521,-0.0519,-0.0518,-0.0517,-0.0516,0,0.027,0.0276,0.0285,0.0265,0.0263,0.0228,0.0203,0.0188,0.0171,0.0124,0.0107,-0.0008,-0.0064,-0.0209,-0.0304,-0.0437,-0.0421,-0.048,-0.046,-0.039,-0.0382,-0.0365,-0.035,-0.0515,-0.0514,-0.0514,-0.0514,0,0.0171,0.0191,0.0179,0.0174,0.0158,0.0148,0.0143,0.0141,0.015,0.0107,0.0107,0.0035,-0.0064,-0.0187,-0.027,-0.0349,-0.0464,-0.0469,-0.0474,-0.0456,-0.0384,-0.0374,-0.0359,-0.051,-0.051,-0.0511,-0.0511,0,0.0061,0.0044,0.0065,0.0072,0.0065,0.0114,0.0104,0.0133,0.0135,0.0143,0.0145,0.0058,-0.0016,-0.0138,-0.0201,-0.0285,-0.0329,-0.0357,-0.0368,-0.0374,-0.0258,-0.0141,-0.0231,0,0,0,0,0,-0.0037,-0.0017,-0.0037,0.0012,0.003,0.0069,0.0093,0.0108,0.0153,0.016,0.0166,0.0099,-0.0016,-0.0074,-0.0153,-0.021,-0.036,-0.0304,-0.0401,-0.0487,-0.0492,-0.037,0,0,0,0,0,0,-0.0115,-0.0125,-0.0052,0.0003,0.0044,0.0091,0.013,0.0154,0.0177,0.0191,0.0127,0.0098,-0.0028,0.0033,-0.0146,-0.0175,-0.0241,-0.0367,-0.0368,-0.0484,-0.0489,-0.0492,-0.0369,0,0,0,0,0]}]]